Dauntless Aviation
Airports Europe Czech Republic
LKPO
PRV

Přerov Air Base

Přerov, CZECH REPUBLIC

Airport Info
Suggest Updated Information for this Airport

Location

Latitude / Longitude: 49°25'32"N / 17°24'16"E
  49°25.548'N / 17°24.282'E
  49.4258 / 17.4047

Nearby radio navigation aids

CK PREROV NDB. 63.6° 2.8nm from CK to field.

Runway Information

Runway 06 /24

Dimensions: 8202 x 196 ft.
Surface: ASP
 
Runway 06
Runway 24
Latitude: 49.421419 49.430439
Longitude: 17.389275 17.420478
Elevation: 663 ft. 663 ft.
Runway true heading: 64.6 244.6
 

Instrument Procedures

  Aerodrome Chart

IAPs (Instrument Approach Procedures)

  ILS/DME Rwy 06
  NDB/DME (GPS) or PAR Rwy 06
  NDB (GPS) or PAR Rwy 06
  POLOM 3A

Departure Procedures

  Instrument Departure Chart HLV 1A - 2Z
  Instrument Departure Chart LUTIM 2A - 2Z
  Instrument Departure Chart MORKO 2Z
  Instrument Departure Chart POLOM 3A
Satellite photo at:
Airport distance calculator
From:
Weather Reports

METAR

LKMT
31.3nm NE
LKMT 200330Z 36004KT 310V040 3000 +RA BR SCT003 OVC012 16/16 Q1018 NOSIG
LKTB
33.3nm SW
LKTB 200330Z 32009KT CAVOK 17/13 Q1018 NOSIG

TAF

LKMT
31.3nm NE
TAF LKMT 192300Z 2000/2106 VRB02KT 7000 BKN012 BECMG 2000/2002 03008KT TEMPO 2000/2002 4000 RA BR BKN006 PROB30 TEMPO 2000/2008 2000 BR BKN003 BECMG 2013/2015 9999 SCT030 BECMG 2020/2022 2500 BR BKN003 TEMPO 2022/2106 1200 BR BKN002 PROB30 TEMPO 2100/2106 0500 FG BKN001
LKTB
33.3nm SW
TAF LKTB 192300Z 2000/2106 32008KT 9999 BKN030 TEMPO 2000/2016 7000 RA BKN020 PROB30 TEMPO 2010/2016 34012G24KT 4000 SHRA SCT020TCU BECMG 2016/2018 CAVOK
Safelog

 

Dauntless Aviation

© 2007-2017 Dauntless Aviation, all rights reserved
Information provided via PilotNav comes from a variety of official and unofficial data sources. As errors are possible, do not use PilotNav for primary flight planning purposes. Verify any information that you receive via PilotNav with current and canonical charts and other official documents. The material in this database is subject to database copyrights held by Dauntless Aviation and may not be copied without the express permission of Dauntless Aviation - licenses for use of part of all of this data are available for purchase; enquire via the Dauntless Aviation helpdesk. A number of mechanisms and markers exist in the database to protect against and identify infringement / copyright. Automated queries against this website are stictly prohibited, and all activity is logged and analyzed.